• Em Portugal
  • Lista de países
  • Para 7 dias
  • Temperatura da água
  • Mapas de satélite
  • Mapa do tempo
  • Widgets de tempo
  • user-avatar
    Iniciar Sessão

    Previsão horária em Salyan

    Hoje, 23 Outubro, Segunda-feira

    Tempo Temperatura Precipitação Vento Pressão Humidade
    00:00 +15°C° 0 mm 2 m/s 649 mmHg 75%
    01:00 +15°C° 0 mm 2 m/s 649 mmHg 73%
    02:00 +14°C° 0 mm 2 m/s 649 mmHg 70%
    03:00 +14°C° 0 mm 2 m/s 649 mmHg 66%
    04:00 +14°C° 0 mm 2 m/s 649 mmHg 62%
    05:00 +13°C° 0 mm 2 m/s 649 mmHg 60%
    06:00 +15°C° 0 mm 1 m/s 650 mmHg 54%
    07:00 +19°C° 0 mm 1 m/s 651 mmHg 47%
    08:00 +21°C° 0 mm 1 m/s 652 mmHg 40%
    09:00 +23°C° 0 mm 1 m/s 652 mmHg 36%
    10:00 +25°C° 0 mm 1 m/s 653 mmHg 32%
    11:00 +27°C° 0 mm 2 m/s 653 mmHg 28%
    12:00 +27°C° 0 mm 2 m/s 653 mmHg 29%
    13:00 +27°C° 0 mm 3 m/s 652 mmHg 29%
    14:00 +26°C° 0 mm 3 m/s 652 mmHg 30%
    15:00 +24°C° 0 mm 2 m/s 652 mmHg 37%
    16:00 +20°C° 0 mm 2 m/s 651 mmHg 44%
    17:00 +19°C° 0 mm 1 m/s 650 mmHg 51%
    18:00 +18°C° 0 mm 1 m/s 651 mmHg 51%
    19:00 +16°C° 0 mm 2 m/s 651 mmHg 51%
    20:00 +15°C° 0 mm 2 m/s 651 mmHg 51%
    21:00 +15°C° 0 mm 2 m/s 651 mmHg 49%
    22:00 +14°C° 0 mm 2 m/s 651 mmHg 48%
    23:00 +14°C° 0 mm 2 m/s 651 mmHg 46%

    Amanhã, 24 Outubro, Terça-feira

    Tempo Temperatura Precipitação Vento Pressão Humidade
    00:00 +14°C° 0 mm 2 m/s 651 mmHg 44%
    01:00 +14°C° 0 mm 2 m/s 651 mmHg 43%
    02:00 +14°C° 0 mm 2 m/s 651 mmHg 41%
    03:00 +13°C° 0 mm 2 m/s 651 mmHg 41%
    04:00 +13°C° 0 mm 2 m/s 651 mmHg 40%
    05:00 +13°C° 0 mm 2 m/s 651 mmHg 39%
    06:00 +15°C° 0 mm 1 m/s 652 mmHg 38%
    07:00 +18°C° 0 mm 1 m/s 653 mmHg 37%
    08:00 +21°C° 0 mm 1 m/s 654 mmHg 36%
    09:00 +22°C° 0 mm 1 m/s 654 mmHg 33%
    10:00 +24°C° 0 mm 1 m/s 655 mmHg 31%
    11:00 +25°C° 0 mm 2 m/s 655 mmHg 28%
    12:00 +25°C° 0 mm 2 m/s 655 mmHg 29%
    13:00 +25°C° 0 mm 2 m/s 654 mmHg 31%
    14:00 +25°C° 0 mm 2 m/s 654 mmHg 32%
    15:00 +22°C° 0 mm 1 m/s 653 mmHg 41%
    16:00 +19°C° 0 mm 1 m/s 652 mmHg 50%
    17:00 +15°C° 0 mm 0 m/s 652 mmHg 59%
    18:00 +15°C° 0 mm 1 m/s 652 mmHg 59%
    19:00 +15°C° 0 mm 1 m/s 652 mmHg 59%
    20:00 +14°C° 0 mm 2 m/s 653 mmHg 59%
    21:00 +14°C° 0 mm 2 m/s 653 mmHg 58%
    22:00 +14°C° 0 mm 2 m/s 652 mmHg 57%
    23:00 +13°C° 0 mm 2 m/s 652 mmHg 55%

    Depois de amanhã, 25 Outubro, Quarta-feira

    Tempo Temperatura Precipitação Vento Pressão Humidade
    00:00 +13°C° 0 mm 2 m/s 652 mmHg 54%
    01:00 +13°C° 0 mm 2 m/s 652 mmHg 53%
    02:00 +13°C° 0 mm 2 m/s 652 mmHg 51%
    03:00 +13°C° 0 mm 2 m/s 652 mmHg 50%
    04:00 +12°C° 0 mm 2 m/s 652 mmHg 48%
    05:00 +12°C° 0 mm 2 m/s 652 mmHg 47%
    06:00 +15°C° 0 mm 1 m/s 653 mmHg 45%
    07:00 +18°C° 0 mm 1 m/s 654 mmHg 43%
    08:00 +20°C° 0 mm 1 m/s 656 mmHg 41%
    09:00 +21°C° 0 mm 1 m/s 656 mmHg 38%
    10:00 +23°C° 0 mm 1 m/s 656 mmHg 36%
    11:00 +24°C° 0 mm 2 m/s 656 mmHg 33%
    12:00 +24°C° 0 mm 2 m/s 656 mmHg 34%
    13:00 +24°C° 0 mm 2 m/s 655 mmHg 35%
    14:00 +24°C° 0 mm 2 m/s 654 mmHg 35%
    15:00 +22°C° 0 mm 1 m/s 654 mmHg 44%
    16:00 +19°C° 0 mm 1 m/s 653 mmHg 53%
    17:00 +15°C° 0 mm 0 m/s 652 mmHg 62%
    18:00 +15°C° 0 mm 1 m/s 653 mmHg 62%
    19:00 +15°C° 0 mm 1 m/s 653 mmHg 63%
    20:00 +14°C° 0 mm 1 m/s 653 mmHg 63%
    21:00 +14°C° 0 mm 2 m/s 653 mmHg 62%
    22:00 +14°C° 0 mm 2 m/s 653 mmHg 62%
    23:00 +13°C° 0 mm 2 m/s 653 mmHg 61%

    26 Outubro, Quinta-feira

    Tempo Temperatura Precipitação Vento Pressão Humidade
    00:00 +13°C° 0 mm 2 m/s 653 mmHg 60%
    01:00 +13°C° 0 mm 2 m/s 652 mmHg 59%
    02:00 +13°C° 0 mm 2 m/s 652 mmHg 59%
    03:00 +13°C° 0 mm 2 m/s 652 mmHg 57%
    04:00 +13°C° 0 mm 2 m/s 652 mmHg 56%
    05:00 +13°C° 0 mm 2 m/s 652 mmHg 55%
    06:00 +15°C° 0 mm 1 m/s 653 mmHg 51%
    07:00 +18°C° 0 mm 1 m/s 655 mmHg 48%
    08:00 +20°C° 0 mm 1 m/s 656 mmHg 44%
    09:00 +22°C° 0 mm 1 m/s 656 mmHg 42%
    10:00 +23°C° 0 mm 1 m/s 656 mmHg 39%
    11:00 +24°C° 0 mm 2 m/s 656 mmHg 37%
    12:00 +24°C° 0 mm 2 m/s 656 mmHg 38%
    13:00 +24°C° 0 mm 2 m/s 655 mmHg 39%
    14:00 +24°C° 0 mm 2 m/s 655 mmHg 40%
    15:00 +22°C° 0 mm 1 m/s 654 mmHg 49%
    16:00 +19°C° 0 mm 1 m/s 654 mmHg 58%
    17:00 +15°C° 0 mm 0 m/s 653 mmHg 67%
    18:00 +15°C° 0 mm 1 m/s 653 mmHg 67%
    19:00 +15°C° 0 mm 1 m/s 654 mmHg 68%
    20:00 +14°C° 0 mm 1 m/s 654 mmHg 69%
    21:00 +14°C° 0 mm 1 m/s 654 mmHg 68%
    22:00 +14°C° 0 mm 1 m/s 653 mmHg 68%
    23:00 +14°C° 0 mm 1 m/s 653 mmHg 67%

    27 Outubro, Sexta-feira

    Tempo Temperatura Precipitação Vento Pressão Humidade
    00:00 +13°C° 0 mm 2 m/s 653 mmHg 66%
    01:00 +13°C° 0 mm 2 m/s 652 mmHg 65%
    02:00 +13°C° 0 mm 2 m/s 652 mmHg 64%
    03:00 +13°C° 0 mm 2 m/s 652 mmHg 62%
    04:00 +13°C° 0 mm 2 m/s 652 mmHg 60%
    05:00 +13°C° 0 mm 2 m/s 652 mmHg 59%
    06:00 +15°C° 0 mm 1 m/s 653 mmHg 54%
    07:00 +18°C° 0 mm 1 m/s 654 mmHg 50%
    08:00 +18°C° 0 mm 0 m/s 655 mmHg 45%
    09:00 +22°C° 0 mm 1 m/s 655 mmHg 43%
    10:00 +23°C° 0 mm 1 m/s 655 mmHg 40%
    11:00 +24°C° 0 mm 2 m/s 655 mmHg 37%
    12:00 +24°C° 0 mm 2 m/s 655 mmHg 38%
    13:00 +24°C° 0 mm 2 m/s 654 mmHg 40%
    14:00 +24°C° 0 mm 2 m/s 654 mmHg 41%
    15:00 +22°C° 0 mm 1 m/s 653 mmHg 50%
    16:00 +19°C° 0 mm 1 m/s 653 mmHg 59%
    17:00 +15°C° 0 mm 0 m/s 652 mmHg 68%
    18:00 +15°C° 0 mm 1 m/s 652 mmHg 68%
    19:00 +15°C° 0 mm 1 m/s 653 mmHg 69%
    20:00 +14°C° 0 mm 1 m/s 653 mmHg 69%
    21:00 +14°C° 0 mm 2 m/s 653 mmHg 68%
    22:00 +14°C° 0 mm 2 m/s 653 mmHg 67%
    23:00 +14°C° 0 mm 2 m/s 652 mmHg 66%

    28 Outubro, Sábado

    Tempo Temperatura Precipitação Vento Pressão Humidade
    00:00 +13°C° 0 mm 2 m/s 652 mmHg 63%
    01:00 +13°C° 0 mm 2 m/s 652 mmHg 61%
    02:00 +13°C° 0 mm 2 m/s 652 mmHg 59%
    03:00 +13°C° 0 mm 2 m/s 652 mmHg 56%
    04:00 +13°C° 0 mm 2 m/s 652 mmHg 53%
    05:00 +12°C° 0 mm 2 m/s 652 mmHg 50%
    06:00 +15°C° 0 mm 1 m/s 653 mmHg 47%
    07:00 +18°C° 0 mm 1 m/s 654 mmHg 43%
    08:00 +20°C° 0 mm 1 m/s 655 mmHg 40%
    09:00 +22°C° 0 mm 1 m/s 655 mmHg 38%
    10:00 +23°C° 0 mm 1 m/s 656 mmHg 37%
    11:00 +25°C° 0 mm 2 m/s 656 mmHg 35%
    12:00 +24°C° 0 mm 2 m/s 655 mmHg 37%
    13:00 +24°C° 0 mm 2 m/s 655 mmHg 39%
    14:00 +24°C° 0 mm 2 m/s 654 mmHg 41%
    15:00 +21°C° 0,1 mm 1 m/s 654 mmHg 50%
    16:00 +19°C° 0,1 mm 1 m/s 653 mmHg 58%
    17:00 +15°C° 0,1 mm 0 m/s 653 mmHg 67%
    18:00 +15°C° 0 mm 1 m/s 653 mmHg 68%
    19:00 +15°C° 0 mm 1 m/s 653 mmHg 68%
    20:00 +14°C° 0 mm 2 m/s 654 mmHg 68%
    21:00 +14°C° 0 mm 2 m/s 653 mmHg 67%
    22:00 +13°C° 0 mm 2 m/s 653 mmHg 66%
    23:00 +13°C° 0 mm 2 m/s 653 mmHg 65%

    29 Outubro, Domingo

    Tempo Temperatura Precipitação Vento Pressão Humidade
    00:00 +13°C° 0 mm 2 m/s 653 mmHg 63%
    01:00 +13°C° 0 mm 2 m/s 652 mmHg 62%
    02:00 +12°C° 0 mm 2 m/s 652 mmHg 60%
    03:00 +12°C° 0 mm 2 m/s 652 mmHg 58%
    04:00 +12°C° 0 mm 2 m/s 652 mmHg 56%
    05:00 +12°C° 0 mm 2 m/s 652 mmHg 55%
    06:00 +14°C° 0 mm 2 m/s 654 mmHg 51%
    07:00 +16°C° 0 mm 1 m/s 655 mmHg 47%
    08:00 +19°C° 0 mm 1 m/s 656 mmHg 43%
    09:00 +21°C° 0 mm 1 m/s 656 mmHg 41%
    10:00 +23°C° 0 mm 1 m/s 656 mmHg 38%
    11:00 +24°C° 0 mm 1 m/s 656 mmHg 35%
    12:00 +24°C° 0 mm 2 m/s 656 mmHg 36%
    13:00 +24°C° 0 mm 2 m/s 655 mmHg 37%
    14:00 +23°C° 0 mm 2 m/s 655 mmHg 38%
    15:00 +21°C° 0,1 mm 1 m/s 655 mmHg 47%
    16:00 +19°C° 0,1 mm 1 m/s 654 mmHg 55%
    17:00 +15°C° 0,1 mm 1 m/s 654 mmHg 64%
    18:00 +15°C° 0 mm 1 m/s 654 mmHg 64%
    19:00 +14°C° 0 mm 1 m/s 654 mmHg 65%
    20:00 +13°C° 0 mm 2 m/s 655 mmHg 66%
    21:00 +13°C° 0 mm 2 m/s 654 mmHg 64%
    22:00 +13°C° 0 mm 2 m/s 654 mmHg 63%
    23:00 +12°C° 0 mm 2 m/s 654 mmHg 61%
    Mostrar mais